Location: Audinghen
(50.8518°N, 1.6129°E)
Time: 16:34:37
(UTC+00:00)

Lacrosse 4 Rocket - Pass Details

Date: 07 August 2020
Orbit: 544 x 615 km, 68.0° (Epoch: 18 September)

Event Time Altitude Azimuth Distance (km) Brightness Sun altitude
Exits shadow 00:12:58 59° 104° (ESE) 673 1.6 -22.7°
Drops below altitude 10° 00:16:53 10° 41° (NE) 1,878 4.7 -22.7°
Sets 00:19:06 0° 38° (NE) 2,768 5.8 -22.7°
